[[{"header":{"parameterUnit":"m.s-1","parameterCategory":2,"la1":30.2991,"la2":30.254,"lo1":-89.0895,"lo2":-89.0444,"dy":0.0017,"dx":0.0017,"nx":28,"ny":28,"refTime":"2025-02-03T09:00:00:Z","depth":"0","parameterNumber":2,"parameterNumberName":"U-component_of_CURRENTS"},"data":[0,0,0,0,0,0,0,0,0,0,0,0,0,0,0,0,0,0,0,0,0,0,0,0,0,0,0,0,0,0,0,0,0,0,0,0,0,0,0,0,0,0,0,0,0,0,0,0,0,0,0,0,0,0,0,0,0,0,0.3734,0.3735,0,0.3799,0.3799,0.38,0.3839,0.3839,0.384,0.384,0.3884,0.3885,0.3886,0,0,0,0,0,0,0,0,0,0,0,0,0,0.3662,0.3663,0.3734,0.3735,0.3736,0.3798,0.3799,0.38,0.3839,0.3839,0.384,0.384,0.3884,0.3885,0.3886,0,0,0,0,0,0,0,0,0,0,0,0,0,0.3705,0.3663,0.3733,0.3764,0.3768,0.3798,0.3799,0.38,0.3839,0.3839,0.384,0.384,0.3884,0.3885,0.3886,0.3883,0,0,0.389,0.389,0,0,0,0,0,0,0,0,0.3702,0.3707,0.3759,0.3762,0.3766,0.3813,0.379,0.3827,0.3839,0.381,0.384,0.3841,0.3859,0.3862,0.3871,0.3885,0.3887,0.389,0.3891,0.3891,0.3892,0,0,0,0,0,0,0,0.3699,0.3705,0.3758,0.376,0.3764,0.3781,0.3787,0.3798,0.3829,0.3812,0.3816,0.3826,0.3861,0.387,0.3872,0.3888,0.389,0.3891,0.3892,0.3892,0.3886,0.3885,0,0,0,0,0,0,0.3693,0.3702,0.3755,0.376,0.3737,0.3782,0.3789,0.3796,0.3829,0.3836,0.3825,0.3827,0.3867,0.3871,0.3874,0.387,0.3891,0.3893,0.3893,0.3887,0.3886,0.3885,0,0,0,0,0,0,0.3692,0.3697,0.3753,0.3734,0.3742,0.3783,0.379,0.3797,0.3805,0.384,0.3845,0.3826,0.3868,0.3872,0.3878,0.3872,0.3893,0.3894,0.3888,0.3886,0.3885,0.3863,0,0,0,0,0,0,0.3689,0.3696,0.3691,0.3733,0.3743,0.3757,0.379,0.3798,0.3811,0.3814,0.3842,0.3847,0.3869,0.3876,0.3879,0.3874,0.3895,0.3889,0.3887,0.3886,0.3865,0.3861,0.3858,0,0,0,0,0,0.3686,0.3671,0.369,0.3697,0.3738,0.3757,0.3762,0.3792,0.381,0.3803,0.3828,0.3847,0.3867,0.3876,0.388,0.3876,0.389,0.3888,0.3886,0.3867,0.3862,0.3858,0,0,0,0,0,0,0.3623,0.3675,0.3697,0.3695,0.3721,0.3764,0.3759,0.3786,0.3801,0.3804,0.3838,0.3844,0.385,0.3857,0.3867,0.3866,0.388,0.3878,0.3864,0.386,0.3856,0.3865,0.3896,0,0,0,0,0,0.3611,0.3619,0.3667,0.3661,0.3675,0.3718,0.3728,0.3752,0.3777,0.3784,0.3807,0.3825,0.3844,0.3847,0.3862,0.3858,0.3895,0.3854,0.3851,0.3848,0.3855,0.3889,0.389,0.3878,0.3878,0.3878,0,0,0.358,0.3612,0.3613,0.3649,0.3673,0.369,0.3724,0.3735,0.3748,0.3785,0.3795,0.3817,0.3841,0.3845,0.3846,0.3849,0.3874,0.3845,0.3843,0.3852,0.3887,0.3889,0.389,0.3876,0.3876,0.3877,0,0,0.3532,0.3555,0.3554,0.3581,0.3622,0.3653,0.3656,0.3698,0.3713,0.3726,0.3762,0.3778,0.3794,0.3818,0.3831,0.3812,0.3859,0.3808,0.3794,0.3826,0.3828,0.3831,0.3901,0.3909,0.38,0.38,0.38,0,0.349,0.351,0.3551,0.3566,0.3584,0.3637,0.3641,0.3665,0.3702,0.3711,0.372,0.3762,0.3785,0.3806,0.3806,0.3807,0.3845,0.3813,0.3824,0.3827,0.383,0.3901,0.3911,0.3799,0.3799,0.3799,0.3799,0,0.3462,0.3477,0.3474,0.3521,0.3539,0.3547,0.3598,0.3611,0.3638,0.3669,0.3688,0.3721,0.3748,0.3754,0.3781,0.3805,0.3835,0.3824,0.3841,0.383,0.3905,0.3916,0.3797,0.3797,0.3798,0.3798,0,0,0.3368,0.3441,0.344,0.3461,0.352,0.353,0.3551,0.3585,0.3603,0.3629,0.3652,0.3684,0.371,0.3727,0.3757,0.3788,0.3853,0.3814,0.3816,0.3895,0.3958,0.3918,0.3927,0.3844,0.3845,0.3846,0.4012,0,0.3332,0.3358,0.3401,0.3413,0.3431,0.3485,0.3502,0.3538,0.3575,0.361,0.3648,0.3682,0.3697,0.3719,0.3749,0.3838,0.3876,0.3812,0.3947,0.3952,0.3926,0.3934,0.3824,0.3956,0.4023,0.4025,0.4026,0,0.3293,0.3323,0.3334,0.3383,0.3392,0.3403,0.3446,0.347,0.3534,0.3565,0.3602,0.365,0.3718,0.3722,0.3851,0.3811,0.3883,0.3941,0.3948,0.3925,0.393,0.3972,0.3974,0.3798,0.4043,0.4041,0.404,0,0.3226,0.3268,0.3278,0.3296,0.336,0.3361,0.3389,0.3446,0.3468,0.3546,0.3572,0.3652,0.3697,0.379,0.3908,0.3892,0.4054,0.4045,0.4076,0.4077,0.4017,0.4008,0.387,0.4123,0.4123,0.4122,0.4122,0,0.318,0.3183,0.3247,0.3254,0.3259,0.3312,0.3321,0.3367,0.3427,0.3455,0.3541,0.358,0.3712,0.3814,0.3922,0.4038,0.4064,0.4089,0.4109,0.4006,0.3995,0.3865,0.38,0.4129,0.4127,0.4126,0.4125,0,0.3108,0.3153,0.3166,0.322,0.3233,0.3233,0.3279,0.329,0.3355,0.34,0.3426,0.3545,0.3682,0.3817,0.3992,0.4043,0.4053,0.4197,0.4087,0.4088,0.3929,0.3868,0.3718,0.3624,0.4272,0.4272,0.4272,0,0.3075,0.3079,0.313,0.3132,0.3152,0.3167,0.3179,0.3249,0.3269,0.3374,0.3392,0.3527,0.3617,0.3859,0.4002,0.4186,0.4032,0.4153,0.4082,0.3903,0.3852,0.3707,0.3627,0.4022,0.402,0.4018,0.4017,0,0.3011,0.303,0.3046,0.3062,0.3069,0.3079,0.3103,0.3113,0.3197,0.3239,0.3313,0.3396,0.3626,0.3752,0.3967,0.4067,0.3921,0.412,0.3952,0.3653,0.3472,0.3395,0.3959,0.4001,0.4003,0.4004,0.4005,0.4005,0.2954,0.2953,0.2978,0.298,0.2986,0.298,0.2959,0.3003,0.303,0.3085,0.321,0.3309,0.3498,0.3792,0.3857,0.3832,0.3829,0.3741,0.3699,0.3581,0.3402,0.394,0.3975,0.3976,0.3977,0.3979,0.3979,0,0.2888,0.2895,0.2893,0.2891,0.2858,0.2893,0.2896,0.2867,0.2873,0.2988,0.3054,0.3209,0.332,0.3458,0.3528,0.3417,0.3322,0.3298,0.305,0.3009,0.3512,0.3407,0.3295,0.3295,0.3295,0.3295,0.3296,0.3296,0.2853,0.2836,0.2841,0.277,0.2752,0.2693,0.2676,0.2661,0.2717,0.2752,0.2827,0.294,0.3037,0.3088,0.2978,0.2951,0.2713,0.2632,0.2591,0.2912,0.2948,0.2982,0.2861,0.2637,0.2636,0.1994,0.1988,0.1984]},{"header":{"parameterUnit":"m.s-1","parameterCategory":2,"la1":30.2991,"la2":30.254,"lo1":-89.0895,"lo2":-89.0444,"dy":0.0017,"dx":0.0017,"nx":28,"ny":28,"refTime":"2025-02-03T09:00:00:Z","depth":"0","parameterNumber":3,"parameterNumberName":"V-component_of_CURRENTS"},"data":[0,0,0,0,0,0,0,0,0,0,0,0,0,0,0,0,0,0,0,0,0,0,0,0,0,0,0,0,0,0,0,0,0,0,0,0,0,0,0,0,0,0,0,0,0,0,0,0,0,0,0,0,0,0,0,0,0,0,0.0382,0.0382,0,0.035,0.035,0.0349,0.0298,0.0298,0.0297,0.0296,0.0265,0.0265,0.0265,0,0,0,0,0,0,0,0,0,0,0,0,0,0.0386,0.0386,0.0382,0.0382,0.0381,0.035,0.035,0.0349,0.0299,0.0298,0.0297,0.0296,0.0265,0.0265,0.0265,0,0,0,0,0,0,0,0,0,0,0,0,0,0.0371,0.0386,0.0382,0.0353,0.035,0.035,0.035,0.0349,0.0299,0.0298,0.0296,0.0295,0.0265,0.0265,0.0265,0.029,0,0,0.0265,0.0265,0,0,0,0,0,0,0,0,0.0372,0.0371,0.0358,0.0355,0.0352,0.0328,0.034,0.0329,0.0299,0.0317,0.0296,0.0295,0.0288,0.0286,0.0281,0.0288,0.0287,0.0265,0.0265,0.0265,0.0265,0,0,0,0,0,0,0,0.0373,0.0372,0.0368,0.0357,0.0354,0.0337,0.0334,0.0337,0.0309,0.0316,0.0312,0.031,0.0286,0.0281,0.028,0.0286,0.0265,0.0265,0.0265,0.0265,0.0288,0.0289,0,0,0,0,0,0,0.0381,0.0373,0.0369,0.0367,0.036,0.0338,0.0334,0.0336,0.0309,0.0304,0.0312,0.0308,0.0282,0.028,0.0279,0.0301,0.0265,0.0265,0.0265,0.0288,0.0288,0.0289,0,0,0,0,0,0,0.0382,0.0381,0.0371,0.037,0.0367,0.034,0.0342,0.0336,0.0328,0.0306,0.03,0.0309,0.0281,0.0279,0.0288,0.0299,0.0265,0.0264,0.0287,0.0288,0.0289,0.0349,0,0,0,0,0,0,0.0382,0.0382,0.0386,0.0371,0.0368,0.0379,0.0343,0.0336,0.0329,0.0324,0.0302,0.0298,0.028,0.0288,0.0288,0.0299,0.0264,0.0286,0.0287,0.0289,0.0346,0.0351,0.0356,0,0,0,0,0,0.0382,0.0398,0.0387,0.0386,0.0375,0.038,0.0378,0.0352,0.0331,0.0338,0.0322,0.0299,0.0295,0.029,0.0289,0.0299,0.0285,0.0287,0.0288,0.0343,0.035,0.0356,0,0,0,0,0,0,0.0404,0.0394,0.0381,0.0393,0.039,0.0372,0.0375,0.0358,0.0351,0.0343,0.0317,0.0313,0.0322,0.0307,0.0301,0.0309,0.0283,0.0284,0.0325,0.0331,0.0337,0.0341,0.0264,0,0,0,0,0,0.0412,0.0417,0.0408,0.0417,0.0416,0.0396,0.0394,0.0379,0.037,0.0364,0.035,0.0334,0.033,0.0327,0.0321,0.0336,0.0326,0.0338,0.0343,0.0348,0.035,0.0355,0.0361,0.0294,0.0294,0.0294,0,0,0.0424,0.0418,0.0421,0.0422,0.0413,0.0423,0.0391,0.0394,0.0399,0.0365,0.037,0.0357,0.0338,0.0348,0.035,0.0336,0.0363,0.035,0.0354,0.0354,0.0357,0.0364,0.0369,0.0295,0.0295,0.0295,0,0,0.0452,0.0444,0.0457,0.0458,0.0453,0.0445,0.0449,0.0438,0.0427,0.0438,0.041,0.0407,0.0402,0.039,0.0383,0.0417,0.0393,0.041,0.0441,0.0446,0.0451,0.0456,0.0461,0.0465,0.0411,0.0411,0.0411,0,0.0464,0.0477,0.0464,0.0478,0.048,0.0458,0.0476,0.0471,0.0464,0.0465,0.0447,0.044,0.0421,0.0432,0.0436,0.0429,0.0428,0.0419,0.0454,0.0458,0.0462,0.0465,0.047,0.0414,0.0414,0.0413,0.0413,0,0.0501,0.051,0.0519,0.0526,0.0533,0.0545,0.0538,0.0542,0.0527,0.052,0.0527,0.0507,0.0499,0.0493,0.0473,0.0491,0.048,0.0462,0.0439,0.0472,0.0474,0.0477,0.0419,0.0417,0.0417,0.0416,0,0,0.0528,0.0542,0.0543,0.0551,0.0557,0.0566,0.0582,0.0592,0.0604,0.0593,0.0612,0.0592,0.0573,0.0563,0.0539,0.054,0.0563,0.0514,0.0513,0.0523,0.0578,0.0551,0.0552,0.0554,0.0555,0.0556,0.0571,0,0.0556,0.0587,0.0589,0.0619,0.0633,0.0625,0.0645,0.065,0.0651,0.0668,0.0644,0.0654,0.0602,0.0604,0.0594,0.0578,0.0574,0.0561,0.0541,0.054,0.0516,0.0556,0.0548,0.0559,0.0575,0.0575,0.0576,0,0.0588,0.0602,0.0635,0.0658,0.0665,0.0683,0.0707,0.0724,0.074,0.0742,0.0742,0.0726,0.0724,0.0678,0.0656,0.0651,0.0615,0.0596,0.0596,0.0551,0.052,0.0526,0.0565,0.0407,0.0581,0.058,0.058,0,0.0602,0.0634,0.0659,0.0666,0.0692,0.0707,0.0724,0.0744,0.077,0.0796,0.0823,0.0805,0.0813,0.0769,0.0712,0.069,0.0695,0.0659,0.0599,0.0597,0.0575,0.0569,0.0461,0.064,0.064,0.064,0.064,0,0.0625,0.0644,0.0667,0.0678,0.0717,0.0727,0.0774,0.0788,0.083,0.0882,0.086,0.09,0.0837,0.0826,0.0755,0.0696,0.0724,0.0615,0.0603,0.0595,0.0591,0.0439,0.0355,0.0641,0.0641,0.0641,0.064,0,0.0631,0.0646,0.0677,0.0709,0.0723,0.0749,0.0808,0.0848,0.0879,0.0951,0.0967,0.0985,0.0979,0.091,0.0858,0.0761,0.0622,0.0669,0.0664,0.0651,0.0428,0.0349,0.0256,0.0197,0.0607,0.0606,0.0606,0,0.0633,0.065,0.0696,0.0724,0.0738,0.0783,0.0825,0.0868,0.0923,0.1008,0.1054,0.1074,0.111,0.1022,0.0875,0.0761,0.0623,0.0641,0.0584,0.042,0.0324,0.0277,0.0231,0.0585,0.0584,0.0584,0.0584,0,0.0638,0.0656,0.0682,0.0744,0.0789,0.0851,0.0916,0.0968,0.1039,0.111,0.121,0.1253,0.1175,0.1085,0.091,0.0795,0.0524,0.0626,0.0463,0.0303,0.0241,0.0177,0.0565,0.0579,0.058,0.058,0.058,0.058,0.0637,0.0664,0.0709,0.0767,0.083,0.0921,0.0982,0.1071,0.1177,0.1319,0.1343,0.1465,0.1291,0.1068,0.0852,0.0466,0.049,0.0348,0.0272,0.0244,0.0162,0.0536,0.0526,0.0526,0.0526,0.0526,0.0527,0,0.0633,0.0676,0.0734,0.0815,0.0894,0.0928,0.1048,0.1131,0.127,0.1442,0.1554,0.1597,0.1316,0.1003,0.0499,0.0182,0.0071,0.001,-0.0072,-0.0098,0.0242,0.0213,0.0126,0.0126,0.0126,0.0127,0.0127,0.0127,0.0634,0.0685,0.0727,0.0853,0.0921,0.1039,0.1115,0.125,0.1398,0.1631,0.1776,0.1877,0.1614,0.0657,-0.0021,-0.017,-0.0388,-0.0424,-0.0519,-0.0322,-0.0297,-0.0273,-0.0322,-0.0519,-0.052,-0.0818,-0.0822,-0.0824]}],[{"header":{"parameterUnit":"m.s-1","parameterCategory":2,"la1":30.2991,"la2":30.254,"lo1":-89.0895,"lo2":-89.0444,"dy":0.0017,"dx":0.0017,"nx":28,"ny":28,"refTime":"2025-02-03T09:00:00:Z","depth":"2","parameterNumber":2,"parameterNumberName":"U-component_of_CURRENTS"},"data":[0,0,0,0,0,0,0,0,0,0,0,0,0,0,0,0,0,0,0,0,0,0,0,0,0,0,0,0,0,0,0,0,0,0,0,0,0,0,0,0,0,0,0,0,0,0,0,0,0,0,0,0,0,0,0,0,0,0,0.1892,0.1892,0,0.1923,0.1923,0.1924,0.1943,0.1943,0.1944,0.1944,0.1986,0.1987,0.1987,0,0,0,0,0,0,0,0,0,0,0,0,0,0.1857,0.1858,0.1892,0.1892,0.1893,0.1923,0.1923,0.1924,0.1943,0.1943,0.1944,0.1944,0.1985,0.1986,0.1988,0,0,0,0,0,0,0,0,0,0,0,0,0,0.1877,0.1858,0.1891,0.1907,0.1909,0.1923,0.1923,0.1924,0.1943,0.1943,0.1944,0.1944,0.1985,0.1986,0.1988,0.1989,0,0,0.1992,0.1992,0,0,0,0,0,0,0,0,0.1876,0.1878,0.1904,0.1906,0.1908,0.1931,0.1927,0.1946,0.1943,0.1929,0.1944,0.1944,0.1969,0.1972,0.1975,0.1991,0.1993,0.1992,0.1993,0.1993,0.1994,0,0,0,0,0,0,0,0.1875,0.1877,0.1903,0.1905,0.1907,0.1916,0.1919,0.193,0.1945,0.193,0.1932,0.1937,0.197,0.1973,0.1976,0.1993,0.1992,0.1993,0.1994,0.1994,0.2072,0.2073,0,0,0,0,0,0,0.1873,0.1876,0.1902,0.1904,0.1894,0.1916,0.1919,0.1922,0.1945,0.1949,0.1937,0.1938,0.1971,0.1974,0.1977,0.2033,0.1993,0.1995,0.1995,0.2071,0.2072,0.2074,0,0,0,0,0,0,0.1872,0.1875,0.19,0.1892,0.1896,0.1916,0.1919,0.1922,0.1947,0.1951,0.1955,0.196,0.1971,0.1975,0.2008,0.2033,0.1995,0.1996,0.2069,0.2071,0.2073,0.2111,0,0,0,0,0,0,0.1871,0.1874,0.1885,0.1892,0.1896,0.192,0.1919,0.1923,0.1949,0.1951,0.1972,0.1975,0.1972,0.2006,0.201,0.2034,0.1997,0.2068,0.207,0.2072,0.2108,0.2114,0.2119,0,0,0,0,0,0.1869,0.1878,0.1885,0.1889,0.1907,0.192,0.1924,0.1938,0.195,0.1962,0.1981,0.1975,0.2024,0.2008,0.2012,0.2038,0.2066,0.2069,0.2072,0.2106,0.2113,0.2119,0,0,0,0,0,0,0.1871,0.1882,0.1889,0.1902,0.1916,0.1925,0.194,0.1952,0.1976,0.1985,0.199,0.1995,0.2034,0.2032,0.2015,0.2068,0.2045,0.2048,0.2069,0.2076,0.2081,0.207,0.1998,0,0,0,0,0,0.1876,0.1884,0.1897,0.1909,0.1918,0.1934,0.1947,0.1958,0.1975,0.1987,0.2002,0.2022,0.2045,0.2057,0.2073,0.21,0.212,0.212,0.2125,0.213,0.2124,0.2181,0.2191,0.2083,0.2083,0.2083,0,0,0.188,0.1888,0.1893,0.1911,0.1924,0.1936,0.1943,0.1966,0.1983,0.1988,0.2023,0.2044,0.2058,0.209,0.2107,0.2093,0.2177,0.2133,0.2137,0.2129,0.2185,0.2196,0.2205,0.2085,0.2084,0.2084,0,0,0.1884,0.1901,0.1907,0.192,0.1944,0.1953,0.1965,0.1987,0.2006,0.2043,0.2053,0.2089,0.2121,0.2132,0.2143,0.2188,0.2206,0.22,0.2215,0.2272,0.2281,0.2289,0.2351,0.2364,0.2199,0.2199,0.2199,0,0.189,0.1896,0.1913,0.1923,0.1935,0.1963,0.1973,0.1996,0.2029,0.2051,0.2061,0.2129,0.2139,0.2179,0.2192,0.22,0.2239,0.2189,0.2279,0.2287,0.2295,0.2356,0.237,0.2202,0.2201,0.2201,0.2201,0,0.1891,0.1905,0.1912,0.193,0.1948,0.1964,0.1992,0.2024,0.2058,0.2083,0.2144,0.2169,0.2207,0.2222,0.222,0.2279,0.2294,0.2283,0.2261,0.2308,0.237,0.2384,0.2205,0.2204,0.2203,0.2203,0,0,0.1875,0.1905,0.1909,0.1916,0.1953,0.1962,0.2004,0.2043,0.2079,0.2129,0.2178,0.2222,0.2249,0.2262,0.2275,0.2315,0.2409,0.2323,0.2325,0.2382,0.2552,0.2408,0.241,0.2423,0.2425,0.2427,0.2581,0,0.187,0.188,0.1903,0.1921,0.1927,0.197,0.2004,0.205,0.2102,0.2159,0.2208,0.2261,0.2261,0.2292,0.2335,0.2392,0.2445,0.2369,0.2499,0.2503,0.2366,0.242,0.2218,0.2324,0.2595,0.2597,0.2599,0,0.1854,0.1864,0.1874,0.1911,0.192,0.1942,0.2005,0.204,0.2128,0.2175,0.2243,0.2291,0.2365,0.2355,0.2487,0.2445,0.25,0.2541,0.2548,0.2402,0.2383,0.2316,0.2339,0.2623,0.2621,0.2619,0.2618,0,0.1808,0.1842,0.1846,0.1857,0.1906,0.1932,0.1967,0.2047,0.2093,0.2189,0.2253,0.2338,0.2409,0.2484,0.2577,0.2547,0.2724,0.2693,0.2621,0.2613,0.2455,0.2427,0.2787,0.2787,0.2786,0.2786,0.2785,0,0.1776,0.1781,0.1829,0.1828,0.1854,0.1902,0.1951,0.2005,0.2101,0.2166,0.2258,0.2337,0.2449,0.2562,0.2615,0.2667,0.2767,0.2629,0.2638,0.2463,0.2435,0.2693,0.268,0.2792,0.279,0.2789,0.2788,0,0.1715,0.1746,0.1754,0.1807,0.1828,0.1846,0.1934,0.1972,0.2079,0.2173,0.2213,0.2373,0.2508,0.2617,0.2759,0.2713,0.2774,0.2772,0.2555,0.253,0.2619,0.2607,0.2688,0.2684,0.2681,0.2678,0.2676,0,0.1678,0.1676,0.1725,0.1735,0.176,0.1803,0.1836,0.1941,0.1991,0.219,0.223,0.241,0.2504,0.2652,0.2623,0.2678,0.2774,0.2485,0.2348,0.2606,0.2608,0.26,0.2593,0.2192,0.2186,0.2181,0.2177,0,0.1606,0.163,0.1636,0.167,0.1699,0.1733,0.1794,0.1837,0.1973,0.2083,0.2238,0.2338,0.2453,0.2391,0.242,0.2416,0.244,0.2375,0.2751,0.2208,0.2139,0.214,0.2149,0.2133,0.2137,0.2141,0.2143,0.2145,0.1548,0.1546,0.157,0.1598,0.1628,0.166,0.168,0.1761,0.1855,0.1942,0.209,0.2142,0.2167,0.2072,0.2059,0.2036,0.2175,0.2069,0.2085,0.2107,0.1981,0.1905,0.1835,0.1838,0.184,0.1842,0.1844,0,0.1479,0.1493,0.1502,0.1533,0.1537,0.1593,0.1646,0.1648,0.1733,0.1758,0.1825,0.1673,0.1643,0.1731,0.1607,0.1575,0.1583,0.1535,0.154,0.1584,0.1623,0.1473,0.1193,0.1191,0.1189,0.1187,0,0,0.1439,0.1427,0.1443,0.1439,0.1468,0.1474,0.1497,0.1509,0.1518,0.1434,0.1397,0.1419,0.1591,0.1316,0.1306,0.1242,0.1401,0.1196,0.1714,0.176,0.1797,0.1924,0.174,0,0,0,0,0]},{"header":{"parameterUnit":"m.s-1","parameterCategory":2,"la1":30.2991,"la2":30.254,"lo1":-89.0895,"lo2":-89.0444,"dy":0.0017,"dx":0.0017,"nx":28,"ny":28,"refTime":"2025-02-03T09:00:00:Z","depth":"2","parameterNumber":3,"parameterNumberName":"V-component_of_CURRENTS"},"data":[0,0,0,0,0,0,0,0,0,0,0,0,0,0,0,0,0,0,0,0,0,0,0,0,0,0,0,0,0,0,0,0,0,0,0,0,0,0,0,0,0,0,0,0,0,0,0,0,0,0,0,0,0,0,0,0,0,0,-0.0029,-0.003,0,-0.0089,-0.009,-0.009,-0.0136,-0.0136,-0.0136,-0.0137,-0.0211,-0.0213,-0.0214,0,0,0,0,0,0,0,0,0,0,0,0,0,0.0007,0.0007,-0.0029,-0.003,-0.0031,-0.0089,-0.009,-0.009,-0.0136,-0.0136,-0.0137,-0.0137,-0.021,-0.0212,-0.0214,0,0,0,0,0,0,0,0,0,0,0,0,0,-0.0026,0.0007,-0.0029,-0.006,-0.0063,-0.0089,-0.009,-0.0091,-0.0135,-0.0136,-0.0137,-0.0137,-0.021,-0.0212,-0.0215,-0.0217,0,0,-0.0222,-0.0223,0,0,0,0,0,0,0,0,-0.0024,-0.0028,-0.0055,-0.0058,-0.0062,-0.0105,-0.0104,-0.0134,-0.0135,-0.0108,-0.0137,-0.0138,-0.0176,-0.0182,-0.0192,-0.0221,-0.0224,-0.0222,-0.0224,-0.0225,-0.0225,0,0,0,0,0,0,0,-0.0022,-0.0026,-0.0053,-0.0056,-0.006,-0.0084,-0.0089,-0.011,-0.0139,-0.0111,-0.0114,-0.012,-0.0179,-0.0189,-0.0194,-0.0225,-0.0222,-0.0224,-0.0226,-0.0227,-0.025,-0.025,0,0,0,0,0,0,-0.0011,-0.0023,-0.0051,-0.0055,-0.0044,-0.0084,-0.009,-0.0091,-0.0138,-0.0146,-0.012,-0.0122,-0.0185,-0.0191,-0.0196,-0.0185,-0.0225,-0.0227,-0.0228,-0.0251,-0.025,-0.0249,0,0,0,0,0,0,-0.001,-0.0013,-0.0049,-0.0041,-0.0047,-0.0084,-0.0085,-0.0092,-0.0104,-0.0145,-0.0153,-0.0125,-0.0185,-0.0193,-0.0209,-0.0189,-0.0228,-0.023,-0.0252,-0.0251,-0.025,-0.0174,0,0,0,0,0,0,-0.0009,-0.0012,-0.001,-0.004,-0.0047,-0.0053,-0.0085,-0.0092,-0.0107,-0.0111,-0.0152,-0.016,-0.0186,-0.0205,-0.0211,-0.0193,-0.0232,-0.0253,-0.0252,-0.025,-0.0178,-0.0171,-0.0164,0,0,0,0,0,-0.0007,-0.0,-0.001,-0.0013,-0.0042,-0.0052,-0.0057,-0.0087,-0.0106,-0.0102,-0.0132,-0.0158,-0.02,-0.0206,-0.0214,-0.0196,-0.0254,-0.0252,-0.025,-0.0181,-0.0172,-0.0165,0,0,0,0,0,0,0.0014,-0.0005,-0.0016,-0.0016,-0.0028,-0.0059,-0.0064,-0.0082,-0.0104,-0.0112,-0.0151,-0.016,-0.0164,-0.0191,-0.0197,-0.0198,-0.023,-0.0229,-0.0174,-0.0166,-0.016,-0.0149,-0.0234,0,0,0,0,0,0.0022,0.0023,0.0003,0.0003,-0.0002,-0.0032,-0.0041,-0.0058,-0.0082,-0.0093,-0.012,-0.0148,-0.0162,-0.0173,-0.0192,-0.0196,-0.022,-0.0189,-0.0182,-0.0176,-0.0172,-0.0195,-0.019,-0.0243,-0.0243,-0.0243,0,0,0.003,0.0019,0.0019,0.0008,-0.0008,-0.0,-0.0039,-0.0048,-0.0041,-0.0097,-0.0099,-0.0126,-0.0157,-0.0157,-0.0162,-0.0179,-0.0171,-0.0174,-0.0168,-0.0168,-0.0193,-0.0188,-0.0183,-0.0242,-0.0242,-0.0243,0,0,0.0052,0.0038,0.0049,0.0046,0.0031,0.0018,0.0019,-0.0006,-0.0017,-0.0024,-0.0056,-0.007,-0.0101,-0.0112,-0.0124,-0.0093,-0.0134,-0.0099,-0.0059,-0.0081,-0.0077,-0.0074,-0.0085,-0.0084,-0.0098,-0.0097,-0.0097,0,0.0061,0.0074,0.0052,0.0066,0.0068,0.0033,0.0052,0.004,0.0014,0.0011,-0.0015,-0.0048,-0.0076,-0.0069,-0.0059,-0.0076,-0.0097,-0.0086,-0.0072,-0.0069,-0.0067,-0.0081,-0.008,-0.0094,-0.0094,-0.0094,-0.0095,0,0.0097,0.0107,0.0114,0.0124,0.0126,0.0133,0.0121,0.0119,0.0096,0.008,0.0073,0.0033,0.0012,0.0006,-0.002,-0.001,-0.0031,-0.0059,-0.0091,-0.0057,-0.0073,-0.0074,-0.0088,-0.0089,-0.0091,-0.0092,0,0,0.0115,0.0136,0.0137,0.0156,0.0157,0.0163,0.018,0.0185,0.0197,0.0163,0.0174,0.0144,0.011,0.0095,0.0062,0.0043,0.0044,0.0001,-0.0002,-0.0007,0.0,-0.0029,-0.0033,0.0014,0.0014,0.0014,-0.0012,0,0.0149,0.019,0.0191,0.0234,0.0255,0.0242,0.0265,0.0264,0.025,0.0252,0.0208,0.0199,0.0148,0.0136,0.0112,0.0064,0.0043,0.0053,-0.0035,-0.0037,-0.0065,-0.0034,-0.0036,-0.0061,-0.0013,-0.0013,-0.0013,0,0.0186,0.0208,0.0255,0.0294,0.0302,0.0322,0.0348,0.0363,0.0358,0.0345,0.0322,0.0282,0.0258,0.0201,0.0134,0.014,0.0076,0.0032,0.0029,-0.0027,-0.0068,-0.009,-0.0064,-0.0014,-0.0014,-0.0014,-0.0014,0,0.0212,0.0255,0.0295,0.0307,0.0342,0.0361,0.0376,0.0386,0.0411,0.0398,0.0412,0.0359,0.0344,0.0258,0.0169,0.0144,0.0095,0.0046,-0.0039,-0.0042,-0.0075,-0.0081,-0.001,-0.001,-0.001,-0.001,-0.001,0,0.0251,0.0282,0.0308,0.033,0.0381,0.0391,0.0442,0.0448,0.0471,0.0521,0.0456,0.0485,0.0355,0.0311,0.0205,0.0098,0.012,-0.0024,-0.005,-0.0048,-0.005,-0.0042,-0.0045,-0.0011,-0.001,-0.001,-0.001,0,0.0281,0.0296,0.0344,0.0382,0.0396,0.0431,0.0489,0.0532,0.0541,0.0605,0.0604,0.058,0.0528,0.0409,0.0286,0.0156,0.0047,-0.0,0.0018,-0.0006,-0.0089,-0.0088,-0.0114,-0.0115,-0.0116,-0.0117,-0.0118,0,0.0305,0.0331,0.0379,0.0413,0.0431,0.0481,0.0529,0.0558,0.0616,0.0679,0.0725,0.0692,0.0707,0.052,0.0283,0.0093,0.0078,-0.0061,-0.0123,-0.0077,-0.01,-0.0097,-0.0095,-0.013,-0.0131,-0.0131,-0.0132,0,0.035,0.036,0.0397,0.0462,0.0514,0.0586,0.0655,0.0717,0.0776,0.0857,0.0957,0.0973,0.0775,0.0572,0.0278,0.014,-0.0037,-0.0083,-0.0028,-0.0107,-0.0095,-0.0117,-0.0113,-0.0137,-0.0137,-0.0136,-0.0136,-0.0136,0.0379,0.0414,0.0459,0.0526,0.0589,0.0694,0.0776,0.0883,0.1016,0.1112,0.1099,0.1091,0.0813,0.0423,0.0208,-0.0053,-0.0062,-0.0186,-0.0182,-0.0178,-0.0179,-0.0171,-0.0226,-0.0226,-0.0226,-0.0226,-0.0226,0,0.0423,0.0462,0.0525,0.0614,0.0702,0.0723,0.0869,0.0983,0.1177,0.1181,0.1239,0.0964,0.0728,0.0455,0.0048,-0.0193,-0.0197,-0.0246,-0.0214,-0.0209,-0.0204,-0.0204,-0.0259,-0.0259,-0.0259,-0.026,0,0,0.0451,0.0514,0.055,0.0697,0.0763,0.0905,0.1,0.118,0.1241,0.1277,0.1195,0.104,0.0736,0.0422,0.0129,-0.006,-0.0075,-0.0091,-0.005,0.0027,0.0035,-0.0164,-0.0159,0,0,0,0,0]}],[{"header":{"parameterUnit":"m.s-1","parameterCategory":2,"la1":30.2991,"la2":30.254,"lo1":-89.0895,"lo2":-89.0444,"dy":0.0017,"dx":0.0017,"nx":28,"ny":28,"refTime":"2025-02-03T09:00:00:Z","depth":"4","parameterNumber":2,"parameterNumberName":"U-component_of_CURRENTS"},"data":[0,0,0,0,0,0,0,0,0,0,0,0,0,0,0,0,0,0,0,0,0,0,0,0,0,0,0,0,0,0,0,0,0,0,0,0,0,0,0,0,0,0,0,0,0,0,0,0,0,0,0,0,0,0,0,0,0,0,0.0549,0.0549,0,0.0577,0.0577,0.0577,0.0604,0.0605,0.0605,0.0606,0.0651,0.0652,0.0652,0,0,0,0,0,0,0,0,0,0,0,0,0,0.0488,0.0489,0.0548,0.0549,0.055,0.0577,0.0577,0.0577,0.0604,0.0605,0.0605,0.0606,0.0651,0.0652,0.0652,0,0,0,0,0,0,0,0,0,0,0,0,0,0.0513,0.0489,0.0548,0.0568,0.057,0.0577,0.0577,0.0577,0.0604,0.0605,0.0605,0.0606,0.065,0.0652,0.0653,0.0644,0,0,0.0656,0.0656,0,0,0,0,0,0,0,0,0.0512,0.0515,0.0564,0.0566,0.0569,0.0589,0.0572,0.0601,0.0604,0.0589,0.0606,0.0606,0.0633,0.0635,0.0636,0.0646,0.0648,0.0656,0.0657,0.0657,0.0657,0,0,0,0,0,0,0,0.051,0.0514,0.0558,0.0565,0.0568,0.0565,0.0569,0.0577,0.0605,0.059,0.0593,0.0599,0.0634,0.0635,0.0637,0.0648,0.0656,0.0657,0.0658,0.0658,0.0704,0.0705,0,0,0,0,0,0,0.0511,0.0512,0.0557,0.0559,0.0544,0.0565,0.057,0.058,0.0604,0.0609,0.0598,0.06,0.0632,0.0636,0.0639,0.0691,0.0657,0.0658,0.0659,0.0704,0.0704,0.0705,0,0,0,0,0,0,0.051,0.0515,0.0556,0.0537,0.0543,0.0566,0.0577,0.0581,0.0593,0.0611,0.0616,0.0608,0.0633,0.0637,0.0667,0.069,0.0659,0.066,0.0703,0.0704,0.0705,0.0755,0,0,0,0,0,0,0.0508,0.0514,0.053,0.0538,0.0544,0.0578,0.0576,0.0581,0.0596,0.0599,0.0621,0.0625,0.0634,0.0665,0.0668,0.0691,0.066,0.0702,0.0703,0.0704,0.0753,0.0758,0.0762,0,0,0,0,0,0.0506,0.0519,0.053,0.0536,0.0562,0.0579,0.0582,0.0599,0.0596,0.061,0.0626,0.0625,0.0674,0.0667,0.067,0.0694,0.0702,0.0703,0.0704,0.0751,0.0757,0.0762,0,0,0,0,0,0,0.0497,0.0524,0.0536,0.0557,0.0577,0.0585,0.0596,0.0602,0.0622,0.0628,0.0635,0.0641,0.0673,0.0672,0.0664,0.0708,0.0686,0.0688,0.0721,0.0726,0.0731,0.0742,0.0661,0,0,0,0,0,0.0503,0.0529,0.0545,0.0568,0.0572,0.0583,0.0593,0.0608,0.0623,0.0632,0.0656,0.067,0.0676,0.0694,0.0704,0.0731,0.0721,0.0746,0.0751,0.0755,0.0765,0.0779,0.0786,0.0709,0.0709,0.0709,0,0,0.0505,0.0527,0.054,0.0569,0.0579,0.059,0.0591,0.0613,0.0627,0.0634,0.0672,0.0688,0.0684,0.0718,0.0732,0.0726,0.0766,0.0757,0.076,0.0768,0.0781,0.0788,0.0795,0.071,0.071,0.071,0,0,0.0509,0.0538,0.055,0.0571,0.0599,0.0608,0.0615,0.0641,0.0657,0.0692,0.0695,0.073,0.075,0.0765,0.0764,0.0796,0.0784,0.0799,0.0842,0.0855,0.0862,0.0868,0.0843,0.0846,0.0809,0.0809,0.0809,0,0.0514,0.0532,0.0557,0.0572,0.0593,0.0613,0.0626,0.0639,0.0682,0.0707,0.0713,0.0763,0.0768,0.0795,0.0815,0.0808,0.0804,0.0823,0.0863,0.0868,0.0873,0.0846,0.0849,0.0811,0.0811,0.0811,0.081,0,0.0517,0.054,0.0547,0.0578,0.0605,0.0625,0.0648,0.069,0.0716,0.0737,0.0789,0.0808,0.0849,0.0848,0.0843,0.0886,0.0865,0.0861,0.0851,0.0884,0.0853,0.0855,0.0815,0.0814,0.0813,0.0813,0,0,0.0503,0.0541,0.0547,0.0569,0.0615,0.0637,0.0675,0.0717,0.075,0.08,0.0845,0.0872,0.091,0.0912,0.092,0.0935,0.096,0.0927,0.0926,0.0906,0.0971,0.0956,0.0956,0.0974,0.0976,0.0977,0.0926,0,0.0497,0.0523,0.0551,0.0589,0.0602,0.0658,0.0695,0.0749,0.079,0.0845,0.0872,0.0916,0.0919,0.0959,0.0976,0.0972,0.0973,0.0973,0.0938,0.0936,0.0924,0.0961,0.0981,0.0927,0.0928,0.0928,0.0929,0,0.0487,0.0511,0.0541,0.0608,0.062,0.0661,0.0752,0.0785,0.0858,0.09,0.0963,0.0984,0.1033,0.1021,0.1037,0.1043,0.1017,0.0996,0.0993,0.0969,0.0928,0.0892,0.0932,0.0932,0.0932,0.0931,0.0931,0,0.0461,0.0508,0.0538,0.056,0.0633,0.0686,0.0735,0.0817,0.0856,0.0946,0.0997,0.1046,0.1086,0.108,0.1077,0.1062,0.107,0.1035,0.098,0.0977,0.098,0.0975,0.1027,0.1027,0.1028,0.1028,0.1028,0,0.0446,0.0469,0.0538,0.0557,0.0618,0.0685,0.0753,0.0823,0.0911,0.096,0.1031,0.1072,0.111,0.1125,0.1094,0.1064,0.1089,0.0996,0.0978,0.0997,0.0995,0.098,0.0975,0.1026,0.1026,0.1027,0.1027,0,0.0409,0.0448,0.0484,0.057,0.0605,0.0655,0.0759,0.0803,0.0907,0.0978,0.1018,0.1104,0.1133,0.1145,0.1129,0.1088,0.1054,0.1027,0.1044,0.1026,0.0929,0.0928,0.0939,0.0938,0.0937,0.0937,0.0937,0,0.0389,0.0405,0.048,0.0511,0.0557,0.0633,0.0684,0.0795,0.0841,0.0979,0.1005,0.1083,0.1125,0.1086,0.1101,0.1057,0.1037,0.1007,0.0971,0.0947,0.0927,0.0926,0.0925,0.0936,0.0936,0.0936,0.0935,0,0.0346,0.0378,0.0403,0.0468,0.0529,0.0578,0.0663,0.0693,0.082,0.0915,0.0986,0.102,0.1047,0.1047,0.1052,0.1006,0.1029,0.1,0.0999,0.0965,0.0943,0.0925,0.0924,0.0934,0.0934,0.0934,0.0934,0,0.0313,0.0318,0.036,0.0418,0.0481,0.0527,0.0569,0.0642,0.0708,0.0874,0.0881,0.0965,0.1034,0.1018,0.1008,0.1,0.0954,0.0903,0.0906,0.0909,0.0929,0.0899,0.0871,0,0,0,0,0,0.0282,0.0285,0.0315,0.0369,0.0428,0.047,0.056,0.0605,0.072,0.0755,0.083,0.086,0.0897,0.0921,0.0897,0.0958,0.0937,0.0925,0.0875,0.0924,0.0926,0.0957,0,0,0,0,0,0,0.026,0.0279,0.0287,0.0321,0.0351,0.0411,0.0463,0.0538,0.0562,0.0684,0.0697,0.0803,0.0827,0.0895,0.0876,0.0885,0.0836,0.0977,0.0975,0.0923,0.0925,0.0926,0.0959,0,0,0,0,0]},{"header":{"parameterUnit":"m.s-1","parameterCategory":2,"la1":30.2991,"la2":30.254,"lo1":-89.0895,"lo2":-89.0444,"dy":0.0017,"dx":0.0017,"nx":28,"ny":28,"refTime":"2025-02-03T09:00:00:Z","depth":"4","parameterNumber":3,"parameterNumberName":"V-component_of_CURRENTS"},"data":[0,0,0,0,0,0,0,0,0,0,0,0,0,0,0,0,0,0,0,0,0,0,0,0,0,0,0,0,0,0,0,0,0,0,0,0,0,0,0,0,0,0,0,0,0,0,0,0,0,0,0,0,0,0,0,0,0,0,0.0159,0.0159,0,0.0139,0.0138,0.0138,0.0128,0.0128,0.0128,0.0128,0.0094,0.0093,0.0092,0,0,0,0,0,0,0,0,0,0,0,0,0,0.0178,0.0178,0.0159,0.0159,0.0158,0.0139,0.0138,0.0138,0.0128,0.0128,0.0128,0.0128,0.0094,0.0093,0.0092,0,0,0,0,0,0,0,0,0,0,0,0,0,0.0165,0.0178,0.0159,0.0151,0.0151,0.0139,0.0138,0.0138,0.0128,0.0128,0.0128,0.0128,0.0095,0.0093,0.0092,0.0082,0,0,0.0088,0.0087,0,0,0,0,0,0,0,0,0.0165,0.0164,0.0153,0.0152,0.0151,0.0136,0.0132,0.0119,0.0128,0.0136,0.0128,0.0128,0.0107,0.0105,0.01,0.008,0.0079,0.0088,0.0087,0.0086,0.0086,0,0,0,0,0,0,0,0.0166,0.0165,0.015,0.0153,0.0151,0.0145,0.0143,0.013,0.0121,0.0136,0.0135,0.0133,0.0106,0.0102,0.0099,0.0079,0.0088,0.0086,0.0085,0.0085,0.004,0.0039,0,0,0,0,0,0,0.017,0.0166,0.0151,0.015,0.0159,0.0145,0.0143,0.0141,0.0121,0.0119,0.0133,0.0133,0.0104,0.0101,0.0098,0.008,0.0086,0.0085,0.0084,0.004,0.004,0.0039,0,0,0,0,0,0,0.0171,0.0169,0.0152,0.0158,0.0155,0.0145,0.0142,0.014,0.014,0.012,0.0117,0.0135,0.0104,0.01,0.0083,0.0079,0.0084,0.0083,0.004,0.004,0.0039,0.0047,0,0,0,0,0,0,0.0171,0.0169,0.0169,0.0158,0.0155,0.0144,0.0142,0.014,0.0138,0.0138,0.012,0.0117,0.0104,0.0086,0.0082,0.0077,0.0082,0.0041,0.004,0.004,0.0047,0.0047,0.0047,0,0,0,0,0,0.0172,0.0171,0.0169,0.0167,0.0155,0.0144,0.0142,0.0134,0.0139,0.0135,0.0123,0.0118,0.0079,0.0084,0.008,0.0075,0.0041,0.004,0.004,0.0048,0.0047,0.0047,0,0,0,0,0,0,0.0176,0.017,0.0167,0.0164,0.0154,0.0142,0.0142,0.0138,0.0127,0.0127,0.0113,0.0108,0.0091,0.0082,0.0088,0.0059,0.0059,0.0058,0.0067,0.0066,0.0066,0.0071,0.0081,0,0,0,0,0,0.0178,0.0178,0.0167,0.0164,0.0163,0.0154,0.015,0.0144,0.0133,0.0128,0.0115,0.01,0.0084,0.0075,0.0058,0.0044,0.0029,0.0038,0.0037,0.0037,0.0038,0.0005,0.0002,0.0037,0.0037,0.0037,0,0,0.0181,0.0175,0.0176,0.0165,0.0161,0.0159,0.0152,0.0146,0.0144,0.0126,0.0117,0.0098,0.0079,0.006,0.0052,0.0053,0.002,0.0036,0.0036,0.0037,0.0004,0.0001,-0.0002,0.0036,0.0036,0.0036,0,0,0.0186,0.0181,0.0185,0.0179,0.0171,0.0162,0.0163,0.015,0.0145,0.0131,0.0117,0.0094,0.0074,0.0054,0.0044,0.0033,0.0018,0.0029,0.0032,0.0,-0.0003,-0.0006,-0.0026,-0.0031,0.003,0.003,0.003,0,0.0189,0.0192,0.0182,0.0184,0.0184,0.0167,0.0172,0.0161,0.0142,0.0137,0.0129,0.0087,0.007,0.0046,0.004,0.0032,0.0016,0.0036,-0.0,-0.0003,-0.0006,-0.0027,-0.0032,0.003,0.003,0.003,0.003,0,0.0199,0.0202,0.0204,0.0202,0.0197,0.0197,0.0184,0.0175,0.0165,0.0151,0.0123,0.0089,0.0066,0.0053,0.0043,0.0013,0.0009,0.0003,0.0002,-0.0009,-0.003,-0.0036,0.003,0.003,0.003,0.003,0,0,0.0206,0.0212,0.0213,0.0222,0.0209,0.0209,0.0201,0.019,0.0188,0.0154,0.0143,0.0102,0.008,0.0066,0.0042,0.001,-0.0027,-0.0001,-0.0003,-0.0019,-0.0091,-0.0087,-0.0093,-0.0041,-0.0042,-0.0043,-0.0096,0,0.0217,0.0233,0.0228,0.0241,0.025,0.0236,0.0232,0.0217,0.0197,0.0177,0.0134,0.0113,0.0087,0.0073,0.0034,-0.0012,-0.0042,-0.0011,-0.0079,-0.0081,-0.0075,-0.01,-0.0046,-0.01,-0.0101,-0.0102,-0.0103,0,0.0229,0.0239,0.026,0.0271,0.0274,0.0279,0.0274,0.0265,0.023,0.0214,0.0175,0.0141,0.0089,0.007,-0.0021,-0.0,-0.0042,-0.0081,-0.0084,-0.0087,-0.0089,-0.0087,-0.0114,-0.0113,-0.0112,-0.0111,-0.0111,0,0.0244,0.0261,0.0282,0.0287,0.0293,0.0304,0.0303,0.028,0.0278,0.0238,0.0228,0.0156,0.0124,0.0052,-0.0031,-0.0025,-0.0132,-0.0131,-0.0167,-0.0167,-0.0156,-0.0153,-0.0191,-0.0191,-0.0191,-0.0191,-0.0191,0,0.0257,0.0274,0.0299,0.0311,0.0338,0.0332,0.0348,0.0334,0.0315,0.0312,0.0252,0.0224,0.0117,0.0043,-0.003,-0.0122,-0.0132,-0.0173,-0.0185,-0.0151,-0.0147,-0.016,-0.0156,-0.0193,-0.0192,-0.0192,-0.0192,0,0.0266,0.0281,0.031,0.0336,0.0348,0.0368,0.0389,0.0394,0.0375,0.0366,0.0358,0.0272,0.0174,0.0066,-0.0058,-0.0112,-0.0202,-0.0228,-0.0184,-0.0192,-0.0213,-0.0208,-0.0269,-0.027,-0.027,-0.027,-0.027,0,0.0271,0.0289,0.0333,0.0357,0.0374,0.0406,0.0423,0.0423,0.0428,0.0393,0.0387,0.0297,0.023,0.0054,-0.0061,-0.0203,-0.0217,-0.0258,-0.0238,-0.0218,-0.0224,-0.0218,-0.0212,-0.0271,-0.0271,-0.0271,-0.0271,0,0.0279,0.0298,0.0322,0.0373,0.041,0.0445,0.0473,0.0483,0.0477,0.0469,0.0412,0.0318,0.0204,0.0058,-0.0057,-0.0157,-0.0232,-0.0261,-0.0261,-0.0243,-0.0221,-0.0225,-0.0219,-0.0273,-0.0272,-0.0272,-0.0272,0,0.0283,0.0303,0.0338,0.0382,0.0429,0.0466,0.0482,0.049,0.0494,0.0465,0.0442,0.032,0.0245,0.0081,-0.0027,-0.0128,-0.0143,-0.0162,-0.0167,-0.0167,-0.0124,-0.0079,-0.0104,0,0,0,0,0,0.0283,0.0304,0.0342,0.039,0.0438,0.0466,0.0504,0.0514,0.0519,0.049,0.047,0.0367,0.02,0.0112,0.0014,-0.0035,-0.0165,-0.0152,-0.019,-0.0279,-0.0278,-0.0245,0,0,0,0,0,0,0.0283,0.0316,0.0335,0.0388,0.0421,0.0472,0.0498,0.0502,0.0484,0.0474,0.038,0.035,0.0177,0.0255,0.0012,-0.002,-0.0054,-0.023,-0.0232,-0.028,-0.0279,-0.0278,-0.0243,0,0,0,0,0]}]]